Location: Newark
(45.5000°N, 11.4167°E)
Time: 13:03:46
(UTC+00:00)

Explorer 11/Cluster Stage 4 - Pass Details

Date: 25 August 2019
Orbit: 467 x 1260 km, 28.8° (Epoch: 16 September)

Event Time Altitude Azimuth Distance (km) Brightness Sun altitude
Rises 11:01:41 0° 244° (WSW) 4,150 10.4 55.1°
Reaches altitude 10° 11:05:14 10° 231° (SW) 3,222 10.1 55.2°
Maximum altitude 11:11:19 23° 183° (S) 2,371 10.2 55.2°
Drops below altitude 10° 11:17:15 10° 135° (SE) 3,133 10.2 55.3°
Sets 11:20:38 0° 122° (ESE) 4,009 10.4 55.3°
